Location: Barnesville
(32.7057°N, 85.8158°W)
Time: 05:14:03
(UTC+00:00)

Daily predictions for brighter satellites

Satellite Brightness Start Highest point End
(mag) Time Altitude Azimuth Time Altitude Azimuth Time Altitude Azimuth
Cosmos 1844 Rocket 2.9 01:01:35 10° SSW 01:07:14 82° WNW 01:12:56 10° NNE
NOSS 3-1 (A) 3.2 01:02:43 10° SSW 01:07:49 58° ESE 01:13:32 10° NE
H-2A R/B 2.0 01:03:13 10° SSE 01:08:07 66° ENE 01:13:09 10° N
STARLINK-1232 4.0 01:04:43 10° SW 01:08:49 72° NW 01:12:58 10° NE
STARLINK-1149 3.7 01:07:05 10° NW 01:11:14 86° SW 01:15:22 10° SE
Cosmos 1607 4.5 01:06:01 10° NNW 01:12:11 47° ENE 01:18:20 10° SE
Meteor 2-11 Rocket 4.5 01:06:29 10° N 01:12:35 71° E 01:18:37 10° SSE
STARLINK-1208 4.2 01:09:43 10° SW 01:13:48 64° NW 01:17:56 10° NE
Cosmos 1536 3.0 01:09:59 10° N 01:13:58 54° E 01:17:57 10° SSE
STARLINK-1180 3.7 01:12:07 10° NW 01:16:15 76° SW 01:20:22 10° SE
STARLINK-1271 4.4 01:14:43 10° WSW 01:18:47 57° NW 01:22:52 10° NE
NOSS 2-3 (C) 3.5 01:14:44 10° SSW 01:18:47 59° ESE 01:23:12 10° NE
SJ-6B 3.2 01:16:49 10° SE 01:20:22 41° ENE 01:23:55 10° N
STARLINK-1153 3.9 01:17:06 10° NW 01:21:12 67° SW 01:25:17 10° SE
CZ-2C R/B 3.3 01:17:50 10° SSE 01:23:07 85° WSW 01:28:44 10° NNW
Cosmos 389 Rocket 2.9 01:20:47 10° SSE 01:24:00 38° E 01:27:14 10° NNE
STARLINK-1132 4.0 01:22:06 10° NW 01:26:11 59° SW 01:30:14 10° SSE
Ariane Rocket 3.0 01:21:58 10° SSE 01:27:01 88° E 01:32:07 10° NNW
Hubble Space Telescope 1.2 01:23:47 10° WSW 01:27:46 46° S 01:31:25 12° ESE
Orbus 7S 4.4 01:25:48 10° SSW 01:28:07 22° SSE 01:31:54 10° ESE
Cosmos 1908 Rocket 4.5 01:25:24 10° NNE 01:29:22 31° E 01:32:58 12° SE
Cosmos 1513 Rocket 4.5 01:23:47 10° N 01:29:51 68° E 01:35:58 10° SSE
BREEZE M DEB (TANK) 4.4 01:13:38 10° SW 01:30:14 70° SE 01:34:27 10° ENE
STARLINK-1177 4.2 01:27:06 10° NW 01:31:08 52° SW 01:35:05 10° SSE
STARLINK-1236 4.4 01:27:37 10° S 01:31:13 29° SE 01:34:49 10° ENE
Cosmos 2251 Rocket 3.5 01:27:10 10° NNW 01:32:25 88° E 01:37:38 10° SSE
Meteor 1-11 Rocket 4.3 01:28:48 10° NNW 01:34:19 61° W 01:39:44 10° S
STARLINK-1167 4.4 01:32:07 10° NW 01:36:05 46° SW 01:39:51 11° SSE
SEDSat Delta rocket 4.0 01:31:00 10° W 01:37:49 80° S 01:44:10 11° E
Resurs 1-3 4.3 01:37:25 14° SE 01:40:49 37° ENE 01:44:52 10° N
STARLINK-1269 4.1 01:37:17 10° SSW 01:41:05 37° SE 01:44:55 10° ENE
ASTEX 1 3.4 01:36:35 10° SSE 01:41:25 66° E 01:46:16 10° N
STARLINK-1157 3.3 01:38:43 10° NW 01:41:58 54° NE 01:44:03 20° ESE
Cosmos 1464 Rocket 4.1 01:37:11 10° N 01:43:36 87° E 01:49:58 10° S
GOES 2 Rocket 4.4 01:35:23 10° W 01:43:36 59° S 01:48:40 16° ESE
Cosmos 2056 Rocket 3.5 01:39:25 10° S 01:44:24 55° ESE 01:49:23 10° NNE
DMSP B5D2-2 4.0 01:39:09 10° NNE 01:44:27 80° ESE 01:49:43 10° S
STARLINK-1200 3.9 01:42:10 10° SSW 01:46:04 42° SE 01:49:59 10° ENE
Cosmos 1743 3.0 01:46:11 10° N 01:49:51 45° E 01:52:08 20° SSE
STARLINK-1192 3.8 01:47:05 10° SSW 01:51:02 47° SE 01:55:00 10° NE
Cosmos 2242 Rocket 3.9 01:46:54 10° SSW 01:51:17 69° W 01:55:39 10° N
FREGAT/IRIS 4.0 01:49:16 10° SSW 01:51:41 31° W 01:54:07 10° NNW
Centaur AC-125 3.6 01:48:26 10° WSW 01:51:47 49° S 02:03:53 10° E
Centaur D-1A AC-32 4.2 01:23:36 10° W 01:52:30 51° SSW 01:56:36 19° SE
STARLINK-1141 4.4 01:49:25 10° NNW 01:53:21 42° NE 01:55:46 20° ESE
GPS 2-04 Rocket1 2.6 01:50:03 10° SW 01:53:26 47° SSE 01:55:48 19° E
STARLINK-1244 3.7 01:51:58 10° SSW 01:55:59 53° SE 02:00:01 10° NE
STARLINK-1140 4.2 01:54:21 10° NNW 01:58:21 46° NE 02:00:34 23° ESE
MOS 1 Rocket 3.9 01:54:26 10° N 01:58:42 54° WNW 02:02:51 10° SSW
STARLINK-1138 3.5 01:56:52 10° SSW 02:00:56 60° SE 02:05:01 10° NE
H-2A R/B 2.3 01:59:00 10° WSW 02:01:25 32° S 02:03:58 21° SE
STARLINK-1156 4.0 01:59:17 10° NW 02:03:20 52° NE 02:05:21 27° ESE
DNEPR-1 R/B 4.5 02:00:10 10° NW 02:05:48 57° WSW 02:09:20 17° S
STARLINK-1143 3.5 02:01:48 10° SW 02:05:54 68° SE 02:10:00 10° NE
MetOp-A 4.2 02:02:36 13° S 02:07:25 82° WSW 02:12:47 10° NNW
STARLINK-1148 3.9 02:04:14 10° NW 02:08:19 58° NE 02:10:07 30° ESE
ERBS 2.9 02:05:41 10° SW 02:08:55 56° NW 02:12:09 10° NNE
STARLINK-1203 3.5 02:06:00 10° SW 02:10:11 78° SE 02:14:23 10° NE
STARLINK-1241 3.5 02:06:46 10° SW 02:10:52 77° SE 02:15:01 10° NE
Okean 1-7 3.2 02:06:43 10° SSW 02:10:59 71° W 02:15:15 10° N
STARLINK-1158 3.7 02:09:11 10° NW 02:13:18 65° NE 02:14:55 35° ESE
Cosmos 1452 Rocket 4.1 02:13:28 28° SE 02:15:13 35° E 02:19:58 10° NE
Tsikada Rocket 4.1 02:09:16 10° S 02:15:28 77° W 02:21:40 10° N
STARLINK-1239 3.5 02:11:43 10° SW 02:15:50 87° SE 02:19:59 10° NE
STARLINK-1162 3.6 02:14:10 10° NW 02:18:18 73° NE 02:19:42 39° ESE
Cosmos 1420 Rocket 4.0 02:15:15 14° S 02:19:38 60° ESE 02:24:45 10° NNE
Cosmos 2082 Rocket 4.1 02:16:35 10° NNE 02:19:39 15° NE 02:21:36 13° ENE
STARLINK-1240 3.6 02:16:42 10° SW 02:20:49 84° NW 02:24:58 10° NE
Cosmos 407 Rocket 3.5 02:17:08 10° NNW 02:22:29 70° ENE 02:24:55 33° SSE
Cosmos 1833 Rocket 3.9 02:19:12 10° N 02:23:50 26° ENE 02:25:34 22° E
CZ-2C R/B 3.9 02:19:56 10° N 02:25:15 45° WNW 02:30:33 10° SW
STARLINK-1216 3.7 02:21:40 10° SW 02:25:47 75° NW 02:29:55 10° NE
Cosmos 1975 2.7 02:23:46 10° N 02:27:48 71° E 02:28:48 48° SSE
STARLINK-1159 3.5 02:24:05 10° NW 02:28:14 88° SW 02:29:15 50° SE
Aureole 1 Rocket 3.6 02:23:40 10° N 02:28:16 62° ENE 02:30:36 35° SE
Meteor 1-4 Rocket 2.8 02:27:29 27° SSW 02:29:11 63° W 02:32:36 10° N
STARLINK-1237 3.9 02:26:40 10° SW 02:30:46 67° NW 02:34:53 10° NE
Cosmos 2221 Rocket 3.6 02:29:37 42° SSE 02:30:54 60° E 02:35:21 10° NNE
USA 245 4.1 02:33:12 32° ENE 02:33:12 32° ENE 02:35:45 10° N
STARLINK-1171 3.5 02:29:05 10° NW 02:33:14 79° SW 02:34:04 55° SSE
STARLINK-1202 4.1 02:31:41 10° SW 02:35:46 60° NW 02:39:51 10° NE
Meteor 2-9 Rocket 4.0 02:30:41 10° N 02:36:03 80° E 02:38:11 38° SSE
SPOT 3 Rocket 4.4 02:32:31 16° SSW 02:36:19 46° W 02:41:16 10° NNW
Cosmos 1437 Rocket 4.4 02:39:16 21° NE 02:39:16 21° NE 02:41:01 10° NNE
STARLINK-1155 3.6 02:34:03 10° NW 02:38:10 70° SW 02:38:49 58° S
EXPRESS MD2 3.0 02:37:46 10° WSW 02:40:18 68° NW 02:44:40 10° NE
Resurs 01 Rocket 2.0 02:38:50 33° S 02:40:41 62° W 02:45:07 10° NNW
ATLAS 3B CENTAUR R/B 3.3 02:28:14 10° WSW 02:41:23 45° S 02:43:50 35° SE
STARLINK-1166 3.7 02:39:03 10° NW 02:43:08 62° SW 02:43:36 57° SSW
SPOT 1/Viking Rocket 4.1 02:42:36 38° E 02:43:28 41° ENE 02:48:17 10° N
Cosmos 2278 Rocket 2.8 02:40:57 10° SSW 02:46:31 58° WNW 02:52:07 10° NNE
Cosmos 1190 Rocket 3.9 02:41:28 10° NNW 02:46:41 84° WSW 02:48:19 46° S
STARLINK-1165 3.9 02:44:03 10° NW 02:48:05 55° SW 02:48:23 53° SSW
Cosmos 1782 Rocket 4.2 02:44:13 10° NNW 02:48:35 53° W 02:50:16 33° SSW
Cosmos 1140 Rocket 3.4 02:44:52 10° NNW 02:50:06 87° WSW 02:51:29 50° SSE
Sich 1 Rocket 3.6 02:45:48 10° N 02:50:24 84° W 02:51:20 57° S
CREW DRAGON DEMO-1 DEB 4.0 02:48:00 10° NW 02:50:14 43° NNW 02:50:14 43° NNW
STARLINK-1169 4.1 02:49:04 10° NW 02:53:03 48° SW 02:53:10 48° SW
STARLINK-1178 4.3 02:54:06 10° WNW 02:57:57 43° SW 02:57:57 43° SW
Delta 128 4.4 02:52:57 10° W 02:58:35 46° SSW 02:58:35 46° SSW
ERS-1 Rocket 3.5 03:00:13 42° ENE 03:00:20 42° ENE 03:05:04 10° N
Cosmos 1544 4.2 02:57:45 10° NNW 03:01:07 37° W 03:01:23 37° WSW
Terra 3.3 03:01:34 24° ENE 03:01:34 24° ENE 03:04:58 10° NNE
Cosmos 2142 Rocket 4.3 02:55:36 10° N 03:01:46 81° E 03:03:29 50° SSE
Cosmos 909 Rocket 4.2 02:55:12 10° NNW 03:02:28 73° WSW 03:04:37 44° S
Okean 2 Rocket 3.0 02:59:23 10° N 03:03:40 79° NE 03:03:40 79° NE
Hubble Space Telescope 2.6 03:04:54 10° WSW 03:06:44 22° WSW 03:06:44 22° WSW
Spot 2 Rocket 3.6 03:11:18 58° SSW 03:12:05 68° W 03:17:05 10° NNW
Cosmos 1954 Rocket 3.9 03:07:28 10° NNW 03:12:46 85° WSW 03:13:16 73° S
Nadezhda 4 Rocket 4.0 03:14:13 55° ESE 03:14:33 56° E 03:20:31 10° NNE
Cosmos 371 Rocket 3.9 03:12:56 32° SW 03:14:56 53° WNW 03:19:40 10° N
Lacrosse 5 3.4 03:12:58 10° NNW 03:17:08 25° NE 03:17:49 24° NE
Cosmos 2151 Rocket 3.8 03:12:52 10° N 03:16:49 65° NNE 03:16:49 65° NNE
IGS 5A 4.2 03:23:40 50° WNW 03:23:40 50° WNW 03:27:16 10° NNW
SEDSat Delta rocket 4.1 03:17:50 10° W 03:24:15 53° SSW 03:24:15 53° SSW
Cosmos 676 Rocket 4.3 03:21:58 10° NNW 03:27:07 58° WSW 03:27:27 57° WSW
CARTOSAT-1 4.2 03:30:01 51° N 03:30:01 51° N 03:33:18 10° N
Cosmos 2279 Rocket 4.1 03:23:41 10° N 03:29:53 71° W 03:31:05 56° SSW
COSMOS 2406 3.8 03:26:05 10° NNW 03:31:34 46° WSW 03:32:21 43° SW
Meteor 1-23 Rocket 4.1 03:32:25 84° SSW 03:32:38 89° W 03:38:21 10° N
H-2A ROCKET BODY 4.0 03:31:06 10° SW 03:37:34 53° SSE 04:12:21 10° E
Cosmos 1461 4.3 03:40:57 35° N 03:40:57 35° N 03:43:43 10° NNE
Cosmos 2297 3.8 03:44:50 66° W 03:45:13 69° WNW 03:50:54 10° NNE
SPOT 5 3.3 03:46:54 66° NW 03:46:54 66° NW 03:51:34 10° NNW
Cosmos 1092 Rocket 4.0 03:55:33 68° NE 03:55:33 68° NE 04:01:02 10° N
Cosmos 2082 Rocket 2.6 03:58:34 10° NNW 04:03:27 60° WNW 04:03:27 60° WNW
Cosmos 1833 Rocket 3.8 04:02:41 10° NW 04:07:16 34° W 04:07:16 34° W
Cosmos 2369 Rocket 3.5 04:13:14 32° NE 04:13:14 32° NE 04:16:18 10° NNE
Cosmos 1943 Rocket 3.0 04:14:48 44° NNE 04:14:48 44° NNE 04:18:31 10° NNE
ISS -0.2 04:13:17 10° NNW 04:13:28 11° NNW 04:13:28 11° NNW
Terra 3.9 04:40:27 22° WNW 04:40:27 22° WNW 04:42:45 10° NW
SeaSat 1 3.9 04:36:49 10° N 04:40:31 34° NW 04:40:31 34° NW
CENTAUR R/B 4.3 04:50:59 10° NNW 04:58:26 35° NE 05:01:10 29° E
Lacrosse 5 4.1 04:55:25 10° NW 04:57:00 19° WNW 04:57:00 19° WNW
ATLAS 2AS CENTAUR R/B 3.0 05:17:31 76° NNW 05:17:31 76° NNW 05:25:12 10° NNE
COSMOS 2455 4.0 05:28:14 37° NE 05:28:14 37° NE 05:31:46 10° NNE
NOSS 3-2 (A) 4.1 05:23:23 10° NNW 05:30:50 81° N 05:30:50 81° N
USA 238 DEB 4.1 05:32:33 10° NNW 05:38:30 62° NW 05:38:30 62° NW
USA 238 4.1 05:32:39 10° NNW 05:38:37 63° NW 05:38:37 63° NW
ATLAS CENTAUR R/B 4.3 05:50:00 16° NNE 05:50:00 16° NNE 05:50:53 10° NNE
Cosmos 2369 Rocket 4.3 05:54:58 17° WNW 05:55:07 17° WNW 05:58:46 10° NNW
USA 215 3.9 06:12:35 45° NW 06:12:35 45° NW 06:16:57 10° NW
CZ-4C R/B 4.4 06:25:54 13° ENE 06:25:54 13° ENE 06:26:53 10° ENE
ATLAS 3B R/B 2.8 06:40:43 10° NNW 06:47:30 73° NE 06:47:30 73° NE
Nadezhda 1 Rocket 4.4 06:42:45 10° N 06:48:24 55° ENE 06:48:24 55° ENE
CENTAUR R/B 3.5 06:41:18 10° NW 06:48:17 52° W 06:48:17 52° W
Cosmos 2297 Rocket 3.6 07:04:51 10° N 07:09:55 33° ENE 07:11:45 27° E
BREEZE-M DEB (TANK) 4.5 07:12:54 28° E 07:12:54 28° E 07:17:55 10° ENE
BREEZE M DEB (TANK) 4.3 07:11:50 65° S 07:13:08 75° SE 07:42:19 10° NE
SL-16 R/B 2.9 07:13:42 54° E 07:14:26 58° ENE 07:20:28 10° N
Cosmos 1745 Rocket 4.4 07:17:18 53° NW 07:17:18 53° NW 07:22:27 10° N
SJ 16-02 3.1 07:14:14 10° N 07:17:48 28° ENE 07:17:48 28° ENE
Timation 2 Rocket 4.3 07:12:03 10° NNW 07:16:55 55° NW 07:16:55 55° NW
ADEOS II 3.4 07:19:24 10° NE 07:24:00 31° E 07:24:11 31° E
CZ-2D R/B 2.4 07:28:12 10° N 07:32:35 60° NNW 07:32:35 60° NNW
Resurs 1-4 Rocket 2.4 07:30:17 10° N 07:34:46 59° NNW 07:34:46 59° NNW
Cosmos 1697 Rocket 2.7 07:38:46 78° ENE 07:38:46 78° ENE 07:44:13 10° NNE
GEOS 3 Rocket 4.3 07:42:46 44° NW 07:42:46 44° NW 07:46:20 10° NW
Cosmos 2227 Rocket 2.6 07:40:26 10° NNW 07:46:03 60° ENE 07:47:50 41° SE
Cosmos 540 Rocket 3.8 07:46:55 57° E 07:46:55 57° E 07:51:53 10° NNE
CZ-4B R/B 3.7 07:48:27 10° N 07:53:15 60° NW 07:53:15 60° NW
Cosmos 1656 4.5 07:54:05 38° WNW 07:54:05 38° WNW 07:59:13 10° N
NPP 4.0 07:51:00 10° N 07:55:57 50° WNW 07:55:57 50° WNW
FALCON 9 R/B 4.0 07:52:06 22° WNW 07:57:36 87° N 08:27:42 10° ESE
Meteor 2-10 Rocket 3.6 07:56:39 10° NNW 08:01:18 63° WNW 08:01:18 63° WNW
Cosmos 1825 Rocket 4.5 08:03:30 39° NNW 08:03:30 39° NNW 08:06:33 10° N
Cosmos 990 Rocket 4.0 07:57:21 10° NNW 08:02:37 81° ENE 08:03:22 65° SE
Alouette 2 Rocket 3.9 07:57:56 10° NNW 08:02:18 61° NNW 08:02:18 61° NNW
Cosmos 1709 Rocket 4.5 08:06:14 41° W 08:06:20 41° W 08:12:03 10° N
Cosmos 841 Rocket 3.3 08:07:29 77° WSW 08:07:45 79° WNW 08:13:00 10° NNE
Cosmos 2285 Rocket 4.5 08:02:53 10° N 08:09:08 58° ENE 08:15:14 10° SSE
CZ-4C R/B 2.6 08:11:04 39° WNW 08:11:23 40° NW 08:16:35 10° NNE
Cosmos-2242 3.3 08:08:36 10° N 08:12:04 57° NNW 08:12:04 57° NNW
Skynet4D Del rocket 4.3 08:14:26 39° SSE 08:14:26 39° SSE 08:18:57 10° ESE
CBERS-1 4.1 08:09:09 10° N 08:14:11 59° WNW 08:14:26 58° W
Cosmos 2369 4.1 08:18:04 45° W 08:18:44 47° WNW 08:24:10 10° N
Cosmos 2360 4.3 08:23:05 50° WSW 08:24:05 58° WNW 08:29:42 10° NNE
STARLINK-26 3.8 08:27:13 52° ENE 08:27:13 52° ENE 08:29:59 10° NE
USA 234 3.9 08:22:29 10° NE 08:28:42 45° SE 08:31:41 28° S
STARLINK-55 3.9 08:29:57 46° ENE 08:29:57 46° ENE 08:32:21 10° NE
Lacrosse 4 Rocket 2.9 08:25:26 10° N 08:29:23 36° ENE 08:33:15 10° SE
GP-B 4.2 08:25:49 10° NNW 08:29:04 30° WNW 08:29:04 30° WNW
STARLINK-1279 4.4 08:30:36 31° E 08:30:36 31° E 08:32:44 10° ENE
IRS-1D 4.1 08:25:27 10° N 08:30:24 41° WNW 08:31:05 39° W
Cosmos 1980 Rocket 2.2 08:30:34 49° SW 08:31:56 67° WNW 08:37:32 10° NNE
Cosmos 1455 4.4 08:29:28 10° NW 08:30:25 15° NW 08:30:25 15° NW
IRS-1C 4.1 08:27:46 10° N 08:33:03 65° WNW 08:34:24 48° SW
STARLINK-1255 4.4 08:33:49 30° ESE 08:33:49 30° ESE 08:36:03 10° ENE
STARLINK-1211 4.4 08:34:04 10° NW 08:38:08 53° NE 08:42:10 10° ESE
Cosmos 1892 4.3 08:37:03 18° SE 08:39:07 31° E 08:42:31 10° NNE
STARLINK-1317 3.7 08:39:26 49° SE 08:39:26 49° SE 08:42:47 10° NE
STARLINK-28 3.3 08:39:50 63° NNE 08:39:50 63° NNE 08:42:37 10° NE
NOSS 2-1 (C) 4.5 08:39:06 26° SE 08:39:46 28° ESE 08:42:44 10° NE
H-2A R/B 3.3 08:37:39 10° SE 08:41:40 42° ENE 08:45:48 10° N
Cosmos 2219 4.3 08:37:15 10° NW 08:40:51 25° W 08:40:51 25° W
Cosmos 489 Rocket 4.5 08:39:49 39° SW 08:42:09 66° WNW 08:48:20 10° N
STARLINK-1245 4.1 08:39:01 10° NW 08:43:07 59° NE 08:47:11 10° SE
NOSS 2-1 (D) 4.3 08:43:28 29° SE 08:44:14 32° ESE 08:47:18 10° NE
STARLINK-41 3.0 08:44:31 72° ENE 08:44:31 72° ENE 08:47:24 10° NE
STARLINK-1291 3.3 08:46:26 53° SE 08:46:28 53° SE 08:49:42 10° NE
STARLINK-1233 3.9 08:43:58 10° NW 08:48:05 67° NE 08:52:11 10° SE
Cosmos 2074 Rocket 4.3 08:46:23 35° SW 08:48:43 51° W 08:54:49 10° N
STARLINK-1264 3.2 08:48:47 57° SE 08:48:55 58° SE 08:52:11 10° NE
STARLINK-1267 3.1 08:50:30 59° SSE 08:50:42 61° SE 08:53:58 10° NE
STARLINK-1272 3.1 08:52:10 61° SSE 08:52:26 64° SE 08:55:44 10° NE
STARLINK-1204 3.7 08:48:56 10° NW 08:53:05 75° NE 08:57:12 10° SE
Cosmos 2297 Rocket 3.2 08:49:06 10° NW 08:53:28 27° W 08:53:28 27° W
STARLINK-1207 3.0 08:53:52 62° S 08:54:12 68° SE 08:57:31 10° NE
STARLINK-1266 3.0 08:55:37 62° S 08:56:02 73° SE 08:59:20 10° NE
ARIANE 5 R/B 2.8 08:51:24 10° N 08:56:14 50° WNW 08:58:05 33° SW
SJ 16-02 3.3 08:53:20 10° NW 08:54:44 15° WNW 08:54:44 15° WNW
STARLINK-33 3.2 08:56:40 52° WNW 08:56:57 54° NW 09:00:05 10° NE
STARLINK-1284 2.9 08:57:24 61° SSW 08:57:52 77° SE 09:01:10 10° NE
STARLINK-1238 3.6 08:53:55 10° NW 08:58:04 83° NE 09:02:12 10° SE
SL-16 R/B 4.0 08:58:47 17° W 08:58:47 17° W 09:02:16 10° NW
STARLINK-1258 2.9 08:59:06 59° SSW 08:59:38 81° SE 09:02:58 10° NE
Cosmos 2082 3.8 08:54:15 10° NNW 08:59:43 53° WSW 09:04:18 14° S
STARLINK-1292 2.9 09:00:04 60° SSW 09:00:35 83° SE 09:03:52 10° NE
STARLINK-1201 3.5 08:58:54 10° NW 09:03:02 87° SW 09:07:11 10° SE
STARLINK-1274 2.9 09:02:40 53° SW 09:03:21 90° SSW 09:06:42 10° NE
ADEOS II 3.3 08:59:14 10° NNW 09:03:31 26° WNW 09:05:07 22° W
Cosmos 2322 Rocket 3.0 08:59:25 14° S 09:04:05 49° ESE 09:09:29 10° NNE
STARLINK-1289 2.9 09:03:30 54° SW 09:04:10 88° NW 09:07:28 10° NE
CZ-2C R/B 4.4 08:59:48 10° NE 09:04:12 28° E 09:08:35 10° SSE
STARLINK-66 3.7 09:04:58 36° WNW 09:05:36 41° NW 09:08:39 10° NNE
Cosmos 2263 Rocket 3.9 09:00:54 10° N 09:05:56 34° ENE 09:10:56 10° SE
STARLINK-80 3.4 09:04:49 40° WSW 09:06:02 73° NW 09:09:50 10° NE
STARLINK-1303 2.9 09:05:29 51° SW 09:06:14 83° NW 09:09:31 10° NE
Cosmos 1869 3.4 09:02:29 10° N 09:06:22 70° E 09:10:10 10° SSE
Spot 4 Rocket 4.2 09:01:58 10° N 09:06:59 57° WNW 09:09:45 26° SW
STARLINK-1206 3.5 09:03:52 10° NW 09:08:00 78° SW 09:12:07 10° SE
Cosmos 1295 Rocket 4.5 09:03:59 18° S 09:08:52 77° W 09:15:14 10° N
STARLINK-1312 3.0 09:08:02 44° WSW 09:08:57 77° NW 09:12:19 10° NE
Cosmos 1400 Rocket 3.5 09:05:30 10° NNW 09:09:16 35° W 09:10:09 31° WSW
Cosmos 1937 Rocket 4.2 09:04:50 10° NW 09:09:28 32° W 09:11:12 26° SW
Cosmos 1408 3.6 09:07:02 12° SSE 09:10:17 44° E 09:13:50 10° NNE
In-Cosmos 22 Rocket 4.2 09:05:55 17° S 09:10:24 86° W 09:16:05 10° N
Helios 1B 4.5 09:08:01 10° SSE 09:12:19 86° WSW 09:16:41 10° NNW
Cosmos 2298 Rocket 4.0 09:07:38 10° NNW 09:12:58 86° ENE 09:18:16 10° SSE
STARLINK-1205 3.5 09:08:52 10° NW 09:12:58 69° SW 09:17:05 10° SE
Cosmos 1842 Rocket 3.6 09:09:09 10° NNW 09:13:34 62° W 09:17:01 16° S
STARLINK-1283 3.7 09:13:00 31° WSW 09:14:30 54° NW 09:18:13 10° NE
STARLINK-75 3.9 09:15:39 27° W 09:16:43 36° NW 09:19:44 10° NNE
STARLINK-1218 3.5 09:13:51 10° NW 09:17:56 61° SW 09:22:00 10° SSE
Landsat 5 3.6 09:16:13 10° SSE 09:20:41 88° W 09:25:13 10° NNW
SL-08 R/B 4.1 09:20:12 23° SW 09:22:04 30° W 09:26:09 10° NW
STARLINK-1254 3.7 09:18:51 10° NW 09:22:54 54° SW 09:26:55 10° SSE
CZ-2C R/B 3.0 09:20:12 10° N 09:23:47 47° WNW 09:25:49 23° SW
Cosmos 1076 Rocket 3.6 09:21:19 19° SSW 09:24:15 60° W 09:28:34 10° N
STARLINK-58 2.9 09:23:21 30° SW 09:24:45 74° NW 09:27:55 10° NE
IDEFIX/ARIANE 42P 2.8 09:19:57 10° N 09:25:06 56° WNW 09:29:09 16° SSW
STARLINK-22 3.8 09:25:02 24° W 09:26:28 38° NW 09:29:30 10° NNE
STARLINK-1231 3.8 09:23:52 10° NW 09:27:51 47° SW 09:31:49 10° SSE
Cosmos 2227 Rocket 3.8 09:26:35 10° WNW 09:29:28 14° W 09:29:33 14° W
ERS-2 3.1 09:29:51 21° SW 09:31:14 27° W 09:34:24 10° NW
Cosmos 1315 Rocket 2.8 09:28:27 10° NNW 09:32:17 57° W 09:36:08 10° S
SL-16 R/B 2.2 09:27:46 15° SSW 09:32:29 74° WNW 09:38:10 10° NNE
Cosmos 1125 Rocket 3.8 09:27:35 10° NNW 09:32:46 70° ENE 09:37:56 10° SSE
COSMOS 2441 4.4 09:27:53 10° N 09:32:49 81° WNW 09:37:41 10° SSW
STARLINK-1232 3.9 09:28:54 10° WNW 09:32:49 42° SW 09:36:43 10° SSE
NOSS 2-1 (E) 3.1 09:31:38 21° SW 09:33:45 59° WNW 09:37:08 10° NNE
CZ-4C R/B 3.4 09:31:40 12° S 09:34:41 42° W 09:38:09 10° NNW
SL-8 Rocket 4.1 09:28:31 10° S 09:34:50 88° E 09:41:10 10° N
Shenzhou-11 Module 1.7 09:35:27 26° SW 09:36:35 57° SSE 09:39:01 10° ENE
STARLINK-1208 4.1 09:33:57 10° WNW 09:37:47 37° SW 09:41:36 10° SSE
ADEOS 4.1 09:35:00 10° NNE 09:40:09 59° ESE 09:45:16 10° S
Cosmos 1825 2.2 09:36:53 10° S 09:40:37 78° E 09:44:22 10° N
Okean 3 Rocket 4.1 09:37:21 10° S 09:41:48 64° E 09:46:17 10° NNE
STARLINK-1271 4.2 09:38:59 10° WNW 09:42:43 33° SW 09:46:26 10° SSE
STARLINK-1277 4.4 09:39:06 12° SSW 09:42:45 46° SE 09:46:44 10° NE
STARLINK-1154 4.4 09:44:03 10° WNW 09:47:40 29° SW 09:51:16 10° S
STARLINK-1276 4.2 09:43:54 11° SSW 09:47:45 52° SE 09:51:46 10° NE
ATLAS CENTAUR R/B 4.1 09:43:19 10° WNW 09:48:16 35° SW 09:59:42 10° S
STARLINK-48 3.7 09:47:45 14° WSW 09:51:00 60° NW 09:54:51 10° NE
STARLINK-1278 3.8 09:47:07 12° SW 09:51:03 73° SE 09:55:17 10° NE
Cosmos 2221 3.6 09:48:46 10° NW 09:52:20 25° W 09:55:54 10° SW
STARLINK-1305 4.0 09:48:41 10° SSW 09:52:42 59° SE 09:56:47 10° NE
STARLINK-1280 3.8 09:48:53 11° SW 09:52:53 76° SE 09:57:08 10° NE
Cosmos 2151 3.0 09:51:32 10° SSW 09:55:44 65° W 09:59:58 10° N
PSLV R/B 3.8 09:53:12 10° N 09:57:16 50° WNW 10:01:18 10° SSW
STARLINK-1262 3.9 09:53:35 10° SSW 09:57:40 67° SE 10:01:47 10° NE
Cosmos 2058 4.4 09:56:28 11° WSW 09:59:22 20° WNW 10:02:28 10° NNW
STARLINK-62 4.4 09:59:37 10° W 10:02:20 26° NW 10:05:04 10° NNE
STARLINK-1300 3.7 09:58:30 10° SW 10:02:37 75° SE 10:06:45 10° NE
Cosmos 1408 Rocket 4.4 09:59:12 10° S 10:03:25 52° E 10:07:37 10° NNE
STARLINK-1269 4.2 10:00:56 10° NW 10:05:03 64° NE 10:09:09 10° SE
STARLINK-1029 4.0 10:02:14 10° WSW 10:05:09 33° NW 10:08:03 10° NNE
Skynet4D Del rocket 4.0 10:00:37 10° WSW 10:05:59 46° S 10:11:05 10° ESE
STARLINK-1295 3.7 10:03:29 10° SW 10:07:36 85° SE 10:11:45 10° NE
Lacrosse 4 Rocket 3.1 10:05:26 10° WNW 10:07:40 14° WSW 10:09:52 10° SW
Cosmos 2360 Rocket 2.2 10:02:43 10° SSW 10:08:19 88° WNW 10:13:58 10° NNE
PAYLOAD A 4.2 10:05:00 10° N 10:09:30 48° WNW 10:14:05 10° SSW
STARLINK-1200 4.0 10:05:55 10° NW 10:10:04 72° NE 10:14:10 10° SE
Cosmos 1339 Rocket 4.5 10:05:16 10° N 10:11:19 71° W 10:17:25 10° S
USA 234 4.0 10:05:29 10° NNE 10:11:35 43° NW 10:17:40 10° WSW
